TimeCST,TemperatureF,Dew PointF,Humidity,Sea Level PressureIn,VisibilityMPH,Wind Direction,Wind SpeedMPH,Gust SpeedMPH,PrecipitationIn,Events,Conditions,WindDirDegrees,DateUTC
12:15 AM,15.8,12.2,86,30.22,10.0,SSE,15.0,-,N/A,,Overcast,150,2013-03-07 06:15:00
12:35 AM,15.8,12.2,86,30.21,10.0,SE,15.0,-,N/A,,Overcast,130,2013-03-07 06:35:00
12:55 AM,14.0,10.4,86,30.21,10.0,SE,15.0,-,N/A,,Overcast,140,2013-03-07 06:55:00
1:15 AM,12.2,12.2,100,30.20,10.0,SE,13.8,-,N/A,,Overcast,130,2013-03-07 07:15:00
1:35 AM,10.4,10.4,100,30.19,10.0,ESE,15.0,-,N/A,,Mostly Cloudy,120,2013-03-07 07:35:00
1:55 AM,10.4,10.4,100,30.19,8.0,ESE,13.8,-,N/A,,Clear,120,2013-03-07 07:55:00
2:15 AM,10.4,8.6,92,30.19,5.0,SE,12.7,-,N/A,,Clear,130,2013-03-07 08:15:00
2:55 AM,8.6,6.8,92,30.18,5.0,SE,9.2,-,N/A,,Mostly Cloudy,130,2013-03-07 08:55:00
3:15 AM,8.6,8.6,100,30.17,10.0,SE,11.5,-,N/A,,Overcast,130,2013-03-07 09:15:00
3:35 AM,10.4,6.8,85,30.17,10.0,SE,12.7,-,N/A,,Overcast,130,2013-03-07 09:35:00
3:55 AM,10.4,8.6,92,30.16,10.0,SE,12.7,-,N/A,,Overcast,130,2013-03-07 09:55:00
4:15 AM,10.4,8.6,92,30.15,5.0,SE,12.7,-,N/A,,Overcast,130,2013-03-07 10:15:00
4:35 AM,10.4,8.6,92,30.15,5.0,SE,13.8,-,N/A,,Mostly Cloudy,130,2013-03-07 10:35:00
4:55 AM,10.4,6.8,85,30.15,5.0,SE,13.8,-,N/A,,Partly Cloudy,130,2013-03-07 10:55:00
5:15 AM,10.4,6.8,85,30.14,7.0,ESE,12.7,-,N/A,,Clear,120,2013-03-07 11:15:00
5:35 AM,10.4,8.6,92,30.14,5.0,ESE,13.8,-,N/A,,Clear,120,2013-03-07 11:35:00
5:55 AM,10.4,10.4,100,30.14,10.0,SE,13.8,-,N/A,,Clear,130,2013-03-07 11:55:00
6:15 AM,10.4,8.6,92,30.14,7.0,SE,15.0,-,N/A,,Clear,130,2013-03-07 12:15:00
6:35 AM,10.4,8.6,92,30.14,8.0,SE,15.0,-,N/A,,Clear,130,2013-03-07 12:35:00
6:55 AM,10.4,8.6,92,30.15,10.0,SE,15.0,-,N/A,,Clear,130,2013-03-07 12:55:00
7:15 AM,10.4,8.6,92,30.14,10.0,ESE,13.8,-,N/A,,Clear,120,2013-03-07 13:15:00
7:35 AM,8.6,6.8,92,30.14,10.0,SE,13.8,-,N/A,,Clear,130,2013-03-07 13:35:00
7:55 AM,10.4,8.6,92,30.14,10.0,SE,15.0,-,N/A,,Clear,130,2013-03-07 13:55:00
8:15 AM,10.4,6.8,85,30.13,9.0,SE,17.3,-,N/A,,Clear,130,2013-03-07 14:15:00
8:35 AM,10.4,8.6,92,30.13,8.0,SE,17.3,-,N/A,,Clear,130,2013-03-07 14:35:00
8:55 AM,10.4,8.6,92,30.13,10.0,SE,17.3,-,N/A,,Clear,130,2013-03-07 14:55:00
9:15 AM,10.4,8.6,92,30.15,10.0,SE,13.8,-,N/A,,Clear,130,2013-03-07 15:15:00
9:35 AM,12.2,8.6,85,30.15,9.0,SE,15.0,-,N/A,,Mostly Cloudy,130,2013-03-07 15:35:00
9:55 AM,12.2,10.4,92,30.14,8.0,SE,18.4,-,N/A,,Mostly Cloudy,140,2013-03-07 15:55:00
10:15 AM,14.0,10.4,86,30.13,6.0,SE,18.4,-,N/A,,Partly Cloudy,140,2013-03-07 16:15:00
10:35 AM,15.8,10.4,79,30.13,4.0,SE,17.3,-,N/A,,Clear,140,2013-03-07 16:35:00
10:55 AM,15.8,12.2,86,30.12,5.0,SE,18.4,-,N/A,,Clear,140,2013-03-07 16:55:00
11:15 AM,15.8,15.8,100,30.12,5.0,SE,17.3,-,N/A,,Clear,140,2013-03-07 17:15:00
11:35 AM,17.6,15.8,93,30.12,7.0,SE,15.0,-,N/A,,Clear,140,2013-03-07 17:35:00
11:55 AM,17.6,14.0,86,30.13,5.0,SE,17.3,-,N/A,,Clear,140,2013-03-07 17:55:00
12:15 PM,17.6,15.8,93,30.12,6.0,SE,17.3,-,N/A,,Clear,140,2013-03-07 18:15:00
12:35 PM,19.4,15.8,86,30.13,5.0,SE,17.3,-,N/A,,Clear,140,2013-03-07 18:35:00
12:55 PM,19.4,15.8,86,30.13,6.0,SSE,15.0,-,N/A,,Clear,150,2013-03-07 18:55:00
1:15 PM,19.4,17.6,93,30.12,7.0,SE,13.8,-,N/A,,Scattered Clouds,140,2013-03-07 19:15:00
1:35 PM,19.4,17.6,93,30.12,9.0,SSE,18.4,-,N/A,,Mostly Cloudy,160,2013-03-07 19:35:00
1:55 PM,19.4,17.6,93,30.11,9.0,SSE,15.0,-,N/A,,Overcast,150,2013-03-07 19:55:00
2:15 PM,19.4,17.6,93,30.11,9.0,SE,13.8,-,N/A,,Overcast,140,2013-03-07 20:15:00
2:35 PM,19.4,15.8,86,30.10,9.0,SE,13.8,-,N/A,,Overcast,140,2013-03-07 20:35:00
2:55 PM,19.4,17.6,93,30.10,10.0,SE,15.0,-,N/A,,Overcast,130,2013-03-07 20:55:00
3:15 PM,19.4,17.6,93,30.11,9.0,SSE,16.1,-,N/A,,Overcast,150,2013-03-07 21:15:00
3:35 PM,19.4,19.4,100,30.11,10.0,SSE,17.3,-,N/A,,Overcast,150,2013-03-07 21:35:00
3:55 PM,19.4,17.6,93,30.10,10.0,SE,16.1,-,N/A,,Overcast,140,2013-03-07 21:55:00
4:15 PM,19.4,17.6,93,30.11,10.0,SSE,15.0,-,N/A,,Overcast,160,2013-03-07 22:15:00
4:35 PM,21.2,17.6,86,30.11,10.0,SSE,18.4,-,N/A,,Overcast,150,2013-03-07 22:35:00
6:15 PM,21.2,17.6,86,30.12,9.0,South,11.5,-,N/A,,Overcast,170,2013-03-08 00:15:00
6:35 PM,21.2,19.4,93,30.12,9.0,SSE,11.5,-,N/A,,Overcast,160,2013-03-08 00:35:00
6:55 PM,21.2,19.4,93,30.12,9.0,SSE,11.5,-,N/A,,Overcast,160,2013-03-08 00:55:00
7:15 PM,21.2,19.4,93,30.11,9.0,SSE,11.5,-,N/A,,Overcast,160,2013-03-08 01:15:00
7:35 PM,21.2,19.4,93,30.12,9.0,South,9.2,-,N/A,,Overcast,170,2013-03-08 01:35:00
7:55 PM,21.2,19.4,93,30.11,8.0,South,11.5,-,N/A,,Overcast,170,2013-03-08 01:55:00
8:15 PM,21.2,21.2,100,30.12,7.0,South,10.4,-,N/A,,Overcast,170,2013-03-08 02:15:00
8:35 PM,21.2,21.2,100,30.12,7.0,South,11.5,-,N/A,,Overcast,170,2013-03-08 02:35:00
8:55 PM,21.2,21.2,100,30.12,5.0,South,10.4,-,N/A,,Overcast,170,2013-03-08 02:55:00
9:15 PM,21.2,19.4,93,30.12,4.0,South,10.4,-,N/A,,Overcast,170,2013-03-08 03:15:00
9:35 PM,21.2,21.2,100,30.12,3.0,South,9.2,-,N/A,,Overcast,180,2013-03-08 03:35:00
9:55 PM,21.2,21.2,100,30.13,3.0,South,10.4,-,N/A,,Overcast,180,2013-03-08 03:55:00
10:15 PM,21.2,21.2,100,30.13,3.0,South,9.2,-,N/A,,Overcast,190,2013-03-08 04:15:00
10:35 PM,21.2,19.4,93,30.13,4.0,South,9.2,-,N/A,,Overcast,190,2013-03-08 04:35:00
10:55 PM,23.0,21.2,93,30.13,5.0,South,10.4,-,N/A,,Overcast,190,2013-03-08 04:55:00
11:15 PM,23.0,21.2,93,30.13,6.0,SSW,11.5,-,N/A,,Overcast,200,2013-03-08 05:15:00
11:35 PM,23.0,21.2,93,30.13,6.0,SSW,10.4,-,N/A,,Overcast,200,2013-03-08 05:35:00
11:55 PM,23.0,21.2,93,30.13,7.0,SSW,9.2,-,N/A,,Overcast,210,2013-03-08 05:55:00